Greenville Downtown, SC

12:08 PM EDT on April 25, 2017 (GMT -0400)
Greenville Downtown

Weather History for KGMU - November, 2012

Change the Weather History Date:

Monday, November 26, 2012

  Actual Average Record
Temperature  
Mean Temperature 52 °F -  
Max Temperature 68 °F 58 °F 75 °F (1996)
Min Temperature 36 °F 39 °F 28 °F (2008)
Degree Days  
Heating Degree Days 13    
Growing Degree Days 2 (Base 50)    
Moisture  
Dew Point 22 °F    
Average Humidity 33    
Maximum Humidity 62    
Minimum Humidity 19    
Precipitation  
Precipitation 0.00 in - - ()
Sea Level Pressure  
Sea Level Pressure 30.15 in    
Wind  
Wind Speed 4 mph (SW)    
Max Wind Speed 8 mph    
Max Gust Speed -    
Visibility 10 miles    
Events      
Averages and records for this station are not official NWS values.
T = Trace of Precipitation, MM = Missing Value Source: NWS Daily Summary

Daily Weather History Graph

Daily Weather History Graph

Search for Another Location

Airport or City:

Trip Planner

Search our weather history database for the weather conditions in past years. The results will help you decide how hot, cold, wet, or windy it might be!

Date:

Astronomy

Nov. 26, 2012 Rise Set
Actual Time 7:14 AM EST 5:19 PM EST
Civil Twilight 6:47 AM EST 5:46 PM EST
Nautical Twilight 6:16 AM EST 6:17 PM EST
Astronomical Twilight 5:45 AM EST 6:47 PM EST
Moon 4:08 PM EST (11/26) 5:26 AM EST (11/26)
Length of Visible Light 10h 59m
Length of Day
10h 04m
Waxing Gibbous, 97% of the Moon is Illuminated
Nov 26
Waxing Gibbous
Nov 28
Full
Dec 6
Last Quarter
Dec 13
New
Dec 20
First Quarter

Hourly Weather History & Observations

Time (EST) Temp. Windchill Dew Point Humidity Pressure Visibility Wind Dir Wind Speed Gust Speed Precip Events Conditions
12:53 AM 39.9 °F 36.7 °F 18.0 °F 41% 30.10 in 10.0 mi WSW 4.6 mph - N/A   Clear
1:53 AM 41.0 °F 38.0 °F 17.1 °F 38% 30.10 in 10.0 mi WNW 4.6 mph - N/A   Clear
2:53 AM 37.9 °F 35.5 °F 18.0 °F 45% 30.11 in 10.0 mi West 3.5 mph - N/A   Clear
3:53 AM 39.0 °F 36.8 °F 17.1 °F 41% 30.11 in 10.0 mi NW 3.5 mph - N/A   Clear
4:53 AM 39.9 °F 37.8 °F 17.1 °F 40% 30.11 in 10.0 mi West 3.5 mph - N/A   Clear
5:53 AM 37.0 °F - 19.9 °F 50% 30.14 in 10.0 mi Calm Calm - N/A   Clear
6:53 AM 36.0 °F - 21.0 °F 55% 30.16 in 10.0 mi Calm Calm - N/A   Clear
7:53 AM 36.0 °F - 24.1 °F 62% 30.17 in 10.0 mi Calm Calm - N/A   Clear
8:53 AM 53.1 °F - 21.0 °F 29% 30.19 in 10.0 mi Variable 3.5 mph - N/A   Clear
9:53 AM 55.0 °F - 24.1 °F 30% 30.21 in 10.0 mi Calm Calm - N/A   Clear
10:53 AM 62.1 °F - 21.9 °F 21% 30.20 in 10.0 mi Variable 3.5 mph - N/A   Clear
11:53 AM 64.0 °F - 21.9 °F 20% 30.19 in 10.0 mi Variable 6.9 mph - N/A   Clear
12:53 PM 64.0 °F - 21.0 °F 19% 30.17 in 10.0 mi Variable 3.5 mph - N/A   Clear
1:53 PM 66.9 °F - 24.1 °F 20% 30.15 in 10.0 mi South 8.1 mph - N/A   Clear
2:53 PM 68.0 °F - 25.0 °F 20% 30.14 in 10.0 mi Variable 5.8 mph - N/A   Clear
3:53 PM 66.9 °F - 25.0 °F 21% 30.13 in 10.0 mi SW 8.1 mph - N/A   Clear
4:53 PM 64.9 °F - 23.0 °F 20% 30.13 in 10.0 mi SSW 5.8 mph - N/A   Clear
5:53 PM 62.1 °F - 23.0 °F 22% 30.15 in 10.0 mi South 4.6 mph - N/A   Clear
6:53 PM 60.1 °F - 24.1 °F 25% 30.16 in 10.0 mi South 4.6 mph - N/A   Clear
7:53 PM 57.0 °F - 25.0 °F 29% 30.16 in 10.0 mi Calm Calm - N/A   Clear
8:53 PM 55.0 °F - 26.1 °F 33% 30.16 in 10.0 mi Calm Calm - N/A   Clear
9:53 PM 52.0 °F - 26.1 °F 37% 30.16 in 10.0 mi SW 4.6 mph - N/A   Scattered Clouds
10:53 PM 52.0 °F - 25.0 °F 35% 30.16 in 10.0 mi SW 5.8 mph - N/A   Partly Cloudy
11:53 PM 53.1 °F - 25.0 °F 34% 30.15 in 10.0 mi SW 3.5 mph - N/A   Overcast